Regional Weather Roundup
Issued by NWS

Home | Current Version | Previous Version | Graphics & Text | Print | Product List | Glossary On
Versions: 1 2 3 4 5 6 7 8 9 10 11 12 13 14 15 16 17 18 19 20 21 22 23 24 25 26 27 28 29 30 31 32 33 34 35 36 37 38 39 40 41 42 43 44 45 46 47 48 49 50
000
ASUS43 KDTX 252110
RWRMI
MICHIGAN HOURLY REGIONAL WEATHER ROUNDUP
NATIONAL WEATHER SERVICE DETROIT/PONTIAC MI
500 PM EDT SAT OCT 25 2014

NOTE: "FAIR" INDICATES FEW OR NO CLOUDS BELOW 12,000 FEET WITH NO
SIGNIFICANT WEATHER AND/OR OBSTRUCTION TO VISIBILITY.

MIZ047>049-052>055-059>063-066>070-074>076-081>083-252200-
SOUTHEAST LOWER MICHIGAN

CITY           SKY/WX    TMP DP  RH WIND       PRES   REMARKS
ADRIAN         SUNNY     68  38  33 NW18G31   29.80R
ALMA           SUNNY     64  30  27 W24G32    29.75R
ANN ARBOR      SUNNY     67  31  26 W25G35    29.75S
BAD AXE        SUNNY     65  35  33 W16G28    29.66R
DETROIT CITY   SUNNY     70  38  31 W17G35    29.71F
DETROIT        SUNNY     68  36  30 W22G31    29.74S
FLINT          SUNNY     68  29  23 W25G36    29.72R
GROSSE ILE     SUNNY     70  37  30 W17G25    29.72S
HILLSDALE      SUNNY     67  29  24 W20G31    29.82S
HOWELL         SUNNY     65  27  24 W20G31    29.75S

CITY           SKY/WX    TMP DP  RH WIND       PRES   REMARKS
JACKSON        SUNNY     66  27  23 W21G31    29.79S
LAMBERTVILLE   SUNNY     70  36  28 W18G26    29.78S
LANSING        SUNNY     64  33  31 W15G36    29.79R
LAPEER         NOT AVBL
MASON          SUNNY     65  30  27 W23G31    29.78S
MONROE         SUNNY     70  39  32 W20G30    29.74S
MT. CLEMENS    MOSUNNY   67  40  37 W20G26    29.68F
PONTIAC        MOSUNNY   66  36  32 W23G29    29.72S
PORT HOPE        N/A     64  35  34 W10G23    29.63R
PORT HURON     SUNNY     64  45  48 W13G18    29.68F
TRI CITIES     SUNNY     66  32  28 W17G31    29.72R
YPSILANTI      MOSUNNY   72  32  23 W23G32    29.75R
$$
MIZ043>046-050>051-056>058-064>065-071>073-077>080-252200-
SOUTHWEST LOWER MICHIGAN

CITY           SKY/WX    TMP DP  RH WIND       PRES   REMARKS
BATTLE CREEK   SUNNY     65  33  30 NW20G35   29.84S
BENTON HARBOR  SUNNY     63  43  48 W15       29.89S
BIG RAPIDS     SUNNY     61  37  40 W15G30    29.78R
COLDWATER      SUNNY     66  29  24 W20G30    29.84S
HOLLAND        SUNNY     65  41  41 W17G24    29.86S
GRAND RAPIDS   SUNNY     65  35  33 W25G35    29.81F
KALAMAZOO      SUNNY     66  33  29 W17G28    29.85F
MARSHALL       SUNNY     65  31  28 W14G24    29.82S
MUSKEGON       SUNNY     62  42  47 W17G24    29.84S
$$
MIZ016>042-252200-
NORTHERN LOWER MICHIGAN

CITY           SKY/WX    TMP DP  RH WIND       PRES   REMARKS
ALPENA         MOSUNNY   58  35  42 W20G29    29.66R
BEAVER ISLAND  SUNNY     59  38  45 W9        29.71R
BELLAIRE       SUNNY     60  36  41 W8        29.73S
CADILLAC       SUNNY     59  34  39 W24G37    29.75S
CHARLEVOIX     SUNNY     57  44  62 W14G20    29.74S
FRANKFORT      CLEAR     61  39  44 W12       29.78S
GAYLORD        SUNNY     55  32  41 W16G28    29.70S
GRAYLING       SUNNY     59  32  35 W15G29    29.72S
HARBOR SPRINGS SUNNY     57  46  65 W9G16     29.69F
HOUGHTON LAKE  SUNNY     58  33  39 W22G32    29.73R
MANISTEE       SUNNY     59  37  44 W14G20    29.80S
OSCODA         SUNNY     62  36  38 W24G30    29.65R
PELLSTON       SUNNY     58  38  47 W16G23    29.68F
TRAVERSE CITY  MOSUNNY   62  30  29 W28       29.73S
$$
MIZ007>008-015-252200-
EASTERN UPPER MICHIGAN

CITY           SKY/WX    TMP DP  RH WIND       PRES   REMARKS
KINROSS        CLOUDY    52  37  58 NW18      29.66R
MACKINAC ISLAN PTSUNNY   56  35  45 W20G30    29.66F
NEWBERRY       MOSUNNY   53  34  47 NW22G36   29.69R
S. S. MARIE    CLOUDY    51  37  58 W20G33    29.64F
$$
MIZ004>006-011>014-085-252200-
CENTRAL UPPER MICHIGAN

CITY           SKY/WX    TMP DP  RH WIND       PRES   REMARKS
MANISTIQUE     SUNNY     60  29  30 NW16G25   29.69S
ESCANABA       SUNNY     63  27  25 NW15G26   29.72R
MENOMINEE      SUNNY     63  23  22 NW13G24   29.76S
SAWYER-GWINN   SUNNY     55  27  33 NW25G38   29.73R
$$
MIZ001>003-009>011-084-252200-
WESTERN UPPER MICHIGAN

CITY           SKY/WX    TMP DP  RH WIND       PRES   REMARKS
IRON MOUNTAIN  SUNNY     61  22  22 NW24G35   29.76S
HOUGHTON       SUNNY     52  35  52 W26G39    29.74R
IRONWOOD       SUNNY     57  27  30 W20G31    29.83S
$$

ABBREVIATIONS USED IN REMARKS
   TC - TEMPERATURE IN CELSIUS
  WCI - WIND CHILL INDEX
   HX - HEAT INDEX
  VSB - VISIBILITY




USA.gov is the U.S. government's official web portal to all federal, state and local government web resources and services.